{"data":{"norad_id":58201,"epoch":"2026-05-24T11:12:02.124000Z","epoch_age_seconds":124197,"freshness":"FRESH","line1":"1 58201U 23168C   26144.46669125  .00000333  00000+0  42650-4 0  9991","line2":"2 58201  97.8213 152.1806 0002155  97.9191 262.2270 14.87577057139072","mean_motion":14.87577057,"eccentricity":0.0002155,"inclination_deg":97.8213,"raan_deg":152.1806,"arg_perigee_deg":97.9191,"mean_anomaly_deg":262.227,"bstar":4.265e-5,"rev_number":13907,"period_min":96.801708067752,"perigee_km":604.00364917401,"apogee_km":607.0136004383,"semimajor_km":6983.6456248062,"source":"CELESTRAK","updated_at":"2026-05-25T13:38:00.585435Z"}}